Find Local Weather

World > North America > United States > Florida

Fort Myers Beach, Florida Regional Weather

Lat: 26.45N, Lon: 81.95W
Wx Zone: FLZ165
Warning FLW WEATHER ALERT - (More Info. Click Here) Warning
Feedback
Expires:201808170600;;185688
ASUS42 KTBW 170517
RWRFL 
FLORIDA REGIONAL WEATHER ROUNDUP
NATIONAL WEATHER SERVICE TAMPA BAY RUSKIN FL
100 AM EDT FRI AUG 17 2018

NOTE: "FAIR" INDICATES FEW OR NO CLOUDS BELOW 12,000 FEET WITH NO
SIGNIFICANT WEATHER AND/OR OBSTRUCTIONS TO VISIBILITY.


FLZ066-069-070-075>078-162-262-165-265-170600-
SOUTHWEST FLORIDA AND KEYS
  
CITY           SKY/WX    TMP DP  RH WIND       PRES   REMARKS
PUNTA GORDA    FAIR      79  73  82 CALM      30.22S                  
FT MYERS       FAIR      77  70  79 N3        30.19F                  
SOUTHWEST INTL FAIR      77  70  79 CALM      30.20F                  
NAPLES         FAIR      80  76  87 NE3       30.19S                  
MARCO ISLAND   FAIR      80  76  87 MISG      30.20R                  
IMMOKALEE        N/A     77  75  94 CALM      30.20S                  
MARATHON       FAIR      83  75  77 E7        30.17S                  
KEY WEST NAS   FAIR      83  75  77 E14       30.16F                  
KEY WEST INTL  FAIR      86  75  69 E9        30.16F HX  95           

STATION/POSITION SKY/WX   TEMP    WIND        PRES    WAVE   SWELL
                          AIR SEA DIR/SP/G            HT/PER HT/PER
                          (F)     (DEG/KT/KT) (MB)    (FT/S) (FT/S)
NAPLES                     81 88              1022.4R
26.0N   85.6W              85 86  110/ 12/ 16 1020.7
DRY TORTUGAS               85     130/ 14/ 15 1021.5R
SAND KEY                   84                 1021.2F
SOMBRERO KEY               85      70/ 12/ 15 1020.8F
LONG KEY                   85 87  110/ 11/ 13 1021.7F

$$

SKY/WX - Weather  TMP - Temperature  DP - Dewpoint  RH - Relative Humidity
WIND - Wind Direction/Speed PRES - Barometric Pressure